• In Deutschland
  • Länderverzeichnis
  • Für 7 Tage
  • Wassertemperatur
  • Satellitenkarten
  • Wetterkarte
  • Widgets
  • user-avatar
    Anmelden

    Stündliche Wetter Emden

    Heute, 16 Dezember, Samstag

    Zeit Temperatur Niederschläge Wind Luftdruck Luftfeuchtigkeit
    00:00 +1°C° 0 mm 4 m/S 751 mmHg 88%
    01:00 +1°C° 0 mm 4 m/S 751 mmHg 87%
    02:00 +1°C° 0 mm 5 m/S 752 mmHg 85%
    03:00 +1°C° 0 mm 5 m/S 752 mmHg 84%
    04:00 +1°C° 0,1 mm 5 m/S 752 mmHg 84%
    05:00 +1°C° 0,1 mm 5 m/S 752 mmHg 83%
    06:00 +1°C° 0,1 mm 5 m/S 753 mmHg 83%
    07:00 +1°C° 0,1 mm 6 m/S 753 mmHg 81%
    08:00 +2°C° 0,1 mm 6 m/S 753 mmHg 80%
    09:00 +2°C° 0,1 mm 6 m/S 754 mmHg 79%
    10:00 +3°C° 0,1 mm 6 m/S 754 mmHg 77%
    11:00 +3°C° 0,1 mm 6 m/S 755 mmHg 74%
    12:00 +4°C° 0,1 mm 6 m/S 755 mmHg 71%
    13:00 +3°C° 0,1 mm 6 m/S 755 mmHg 73%
    14:00 +2°C° 0,1 mm 6 m/S 756 mmHg 75%
    15:00 +2°C° 0,1 mm 6 m/S 756 mmHg 77%
    16:00 +2°C° 0,2 mm 6 m/S 757 mmHg 78%
    17:00 +2°C° 0,2 mm 6 m/S 757 mmHg 78%
    18:00 +1°C° 0,2 mm 6 m/S 758 mmHg 79%
    19:00 +1°C° 0,1 mm 6 m/S 758 mmHg 79%
    20:00 +1°C° 0,1 mm 6 m/S 759 mmHg 79%
    21:00 +1°C° 0,1 mm 6 m/S 759 mmHg 79%
    22:00 +1°C° 0,1 mm 6 m/S 760 mmHg 79%
    23:00 +1°C° 0,1 mm 6 m/S 760 mmHg 78%

    Morgen, 17 Dezember, Sonntag

    Zeit Temperatur Niederschläge Wind Luftdruck Luftfeuchtigkeit
    00:00 +1°C° 0,1 mm 6 m/S 761 mmHg 78%
    01:00 +1°C° 0,1 mm 6 m/S 761 mmHg 78%
    02:00 +1°C° 0,1 mm 6 m/S 762 mmHg 79%
    03:00 +1°C° 0,1 mm 6 m/S 762 mmHg 79%
    04:00 +1°C° 0,1 mm 5 m/S 762 mmHg 80%
    05:00 +1°C° 0,1 mm 5 m/S 763 mmHg 80%
    06:00 +1°C° 0,1 mm 5 m/S 763 mmHg 81%
    07:00 +1°C° 0,1 mm 5 m/S 764 mmHg 80%
    08:00 +1°C° 0,1 mm 4 m/S 765 mmHg 80%
    09:00 +1°C° 0,1 mm 4 m/S 765 mmHg 80%
    10:00 +3°C° 0 mm 4 m/S 765 mmHg 78%
    11:00 +4°C° 0 mm 4 m/S 765 mmHg 76%
    12:00 +5°C° 0 mm 4 m/S 766 mmHg 74%
    13:00 +4°C° 0 mm 4 m/S 766 mmHg 77%
    14:00 +3°C° 0 mm 4 m/S 766 mmHg 80%
    15:00 +3°C° 0 mm 4 m/S 766 mmHg 84%
    16:00 +2°C° 0 mm 5 m/S 766 mmHg 85%
    17:00 +1°C° 0 mm 5 m/S 766 mmHg 86%
    18:00 +1°C° 0 mm 6 m/S 766 mmHg 87%
    19:00 0°C° 0,3 mm 7 m/S 765 mmHg 86%
    20:00 +1°C° 0,3 mm 8 m/S 764 mmHg 86%
    21:00 +1°C° 0,3 mm 9 m/S 764 mmHg 86%
    22:00 +1°C° 0,9 mm 9 m/S 763 mmHg 88%
    23:00 +1°C° 0,9 mm 9 m/S 762 mmHg 90%

    übermorgen, 18 Dezember, Montag

    Zeit Temperatur Niederschläge Wind Luftdruck Luftfeuchtigkeit
    00:00 +2°C° 0,9 mm 9 m/S 762 mmHg 92%
    01:00 +3°C° 0,7 mm 9 m/S 762 mmHg 89%
    02:00 +4°C° 0,7 mm 8 m/S 762 mmHg 86%
    03:00 +5°C° 0,7 mm 8 m/S 762 mmHg 84%
    04:00 +4°C° 0 mm 8 m/S 762 mmHg 83%
    05:00 +4°C° 0 mm 8 m/S 763 mmHg 83%
    06:00 +3°C° 0 mm 7 m/S 763 mmHg 82%
    07:00 +4°C° 0,1 mm 8 m/S 764 mmHg 82%
    08:00 +4°C° 0,1 mm 8 m/S 765 mmHg 82%
    09:00 +4°C° 0,1 mm 8 m/S 765 mmHg 82%
    10:00 +5°C° 0 mm 8 m/S 766 mmHg 78%
    11:00 +5°C° 0 mm 8 m/S 766 mmHg 75%
    12:00 +5°C° 0 mm 8 m/S 767 mmHg 71%
    13:00 +5°C° 0 mm 7 m/S 767 mmHg 73%
    14:00 +4°C° 0 mm 7 m/S 768 mmHg 76%
    15:00 +4°C° 0 mm 6 m/S 768 mmHg 78%
    16:00 +3°C° 0 mm 6 m/S 769 mmHg 79%
    17:00 +3°C° 0 mm 5 m/S 770 mmHg 81%
    18:00 +3°C° 0 mm 5 m/S 770 mmHg 83%
    19:00 +3°C° 0 mm 5 m/S 771 mmHg 84%
    20:00 +3°C° 0 mm 4 m/S 772 mmHg 85%
    21:00 +3°C° 0 mm 4 m/S 772 mmHg 86%
    22:00 +3°C° 0 mm 3 m/S 772 mmHg 86%
    23:00 +3°C° 0 mm 3 m/S 773 mmHg 86%

    19 Dezember, Dienstag

    Zeit Temperatur Niederschläge Wind Luftdruck Luftfeuchtigkeit
    00:00 +3°C° 0 mm 3 m/S 773 mmHg 87%
    01:00 +3°C° 0 mm 3 m/S 773 mmHg 88%
    02:00 +3°C° 0 mm 3 m/S 774 mmHg 89%
    03:00 +3°C° 0 mm 3 m/S 774 mmHg 90%
    04:00 +3°C° 0 mm 3 m/S 774 mmHg 91%
    05:00 +3°C° 0 mm 3 m/S 775 mmHg 92%
    06:00 +3°C° 0 mm 3 m/S 775 mmHg 93%
    07:00 +3°C° 0 mm 3 m/S 775 mmHg 93%
    08:00 +3°C° 0 mm 3 m/S 775 mmHg 93%
    09:00 +3°C° 0 mm 3 m/S 776 mmHg 93%
    10:00 +4°C° 0 mm 4 m/S 776 mmHg 91%
    11:00 +5°C° 0 mm 4 m/S 776 mmHg 89%
    12:00 +5°C° 0 mm 5 m/S 776 mmHg 86%
    13:00 +5°C° 0 mm 5 m/S 776 mmHg 88%
    14:00 +5°C° 0 mm 5 m/S 775 mmHg 91%
    15:00 +3°C° 0 mm 5 m/S 775 mmHg 93%
    16:00 +3°C° 0 mm 5 m/S 775 mmHg 93%
    17:00 +3°C° 0 mm 5 m/S 776 mmHg 93%
    18:00 +2°C° 0 mm 6 m/S 776 mmHg 93%
    19:00 +3°C° 0 mm 6 m/S 776 mmHg 93%
    20:00 +3°C° 0 mm 6 m/S 776 mmHg 92%
    21:00 +3°C° 0 mm 6 m/S 776 mmHg 91%
    22:00 +3°C° 0 mm 6 m/S 776 mmHg 92%
    23:00 +5°C° 0 mm 5 m/S 776 mmHg 93%

    20 Dezember, Mittwoch

    Zeit Temperatur Niederschläge Wind Luftdruck Luftfeuchtigkeit
    00:00 +5°C° 0 mm 5 m/S 776 mmHg 93%
    01:00 +5°C° 0 mm 5 m/S 776 mmHg 94%
    02:00 +5°C° 0 mm 5 m/S 775 mmHg 95%
    03:00 +6°C° 0 mm 5 m/S 775 mmHg 96%
    04:00 +6°C° 0 mm 5 m/S 775 mmHg 96%
    05:00 +7°C° 0 mm 5 m/S 775 mmHg 96%
    06:00 +7°C° 0 mm 5 m/S 775 mmHg 97%
    07:00 +7°C° 0 mm 5 m/S 776 mmHg 97%
    08:00 +7°C° 0 mm 5 m/S 776 mmHg 97%
    09:00 +8°C° 0 mm 5 m/S 776 mmHg 97%
    10:00 +8°C° 0 mm 5 m/S 776 mmHg 96%
    11:00 +8°C° 0 mm 5 m/S 776 mmHg 96%
    12:00 +8°C° 0 mm 5 m/S 776 mmHg 95%
    13:00 +8°C° 0 mm 5 m/S 776 mmHg 95%
    14:00 +8°C° 0 mm 4 m/S 776 mmHg 95%
    15:00 +8°C° 0 mm 4 m/S 776 mmHg 95%
    16:00 +8°C° 0 mm 4 m/S 776 mmHg 95%
    17:00 +8°C° 0 mm 4 m/S 776 mmHg 95%
    18:00 +8°C° 0 mm 4 m/S 776 mmHg 96%
    19:00 +7°C° 0 mm 4 m/S 776 mmHg 95%
    20:00 +7°C° 0 mm 5 m/S 776 mmHg 95%
    21:00 +7°C° 0 mm 5 m/S 776 mmHg 95%
    22:00 +7°C° 0 mm 5 m/S 776 mmHg 95%
    23:00 +7°C° 0 mm 6 m/S 775 mmHg 95%

    21 Dezember, Donnerstag

    Zeit Temperatur Niederschläge Wind Luftdruck Luftfeuchtigkeit
    00:00 +7°C° 0 mm 6 m/S 775 mmHg 95%
    01:00 +7°C° 0 mm 6 m/S 774 mmHg 94%
    02:00 +6°C° 0 mm 7 m/S 774 mmHg 93%
    03:00 +6°C° 0 mm 7 m/S 773 mmHg 93%
    04:00 +6°C° 0 mm 7 m/S 773 mmHg 92%
    05:00 +6°C° 0 mm 7 m/S 773 mmHg 92%
    06:00 +6°C° 0 mm 8 m/S 772 mmHg 91%
    07:00 +6°C° 0 mm 8 m/S 772 mmHg 91%
    08:00 +6°C° 0 mm 8 m/S 772 mmHg 90%
    09:00 +6°C° 0 mm 9 m/S 771 mmHg 90%
    10:00 +7°C° 0,1 mm 9 m/S 771 mmHg 89%
    11:00 +7°C° 0,1 mm 9 m/S 770 mmHg 89%
    12:00 +7°C° 0,1 mm 10 m/S 770 mmHg 89%
    13:00 +7°C° 0,5 mm 9 m/S 769 mmHg 90%
    14:00 +7°C° 0,5 mm 9 m/S 769 mmHg 90%
    15:00 +7°C° 0,5 mm 9 m/S 769 mmHg 91%
    16:00 +7°C° 0,2 mm 8 m/S 769 mmHg 91%
    17:00 +7°C° 0,2 mm 8 m/S 770 mmHg 90%
    18:00 +6°C° 0,2 mm 8 m/S 770 mmHg 90%
    19:00 +6°C° 0 mm 7 m/S 771 mmHg 88%
    20:00 +5°C° 0 mm 7 m/S 771 mmHg 87%
    21:00 +5°C° 0 mm 6 m/S 771 mmHg 85%
    22:00 +4°C° 0 mm 6 m/S 771 mmHg 85%
    23:00 +4°C° 0 mm 6 m/S 771 mmHg 85%
    Mehr zeigen